Regional Weather Roundup
Issued by NWS

Home | Current Version | Previous Version | Text Only | Print | Product List | Glossary Off
Versions: 1 2 3 4 5 6 7 8 9 10 11 12 13 14 15 16 17 18 19 20 21 22 23 24 25 26 27 28 29 30 31 32 33 34 35 36 37 38 39 40 41 42 43 44 45 46 47 48 49 50

415
ASUS43 KLMK 070210
RWRKY
KENTUCKY REGIONAL WEATHER ROUNDUP
NATIONAL WEATHER SERVICE LOUISVILLE KY
900 PM EST SAT FEB 06 2016

NOTE "FAIR" INDICATES FEW OR NO CLOUDS BELOW 12,000 FEET
WITH NO SIGNIFICANT WEATHER AND/OR OBSTRUCTIONS TO VISIBILITY.

KYZ001>023-026-027-061>063-070>075-070300-
WESTERN AND SOUTH CENTRAL KENTUCKY

CITY           SKY/WX    TMP DP  RH WIND       PRES   REMARKS
PADUCAH        CLEAR     45  20  36 SW7       30.26F
HENDERSON      PTCLDY    34  25  69 S6        30.26R WCI  29
OWENSBORO      CLEAR     41  28  60 CALM      30.27S
HOPKINSVILLE   CLEAR     42  20  41 SW5       30.28S
BOWLING GREEN  CLEAR     38  23  55 CALM      30.28S
GLASGOW        CLEAR     37  24  60 CALM      30.28S
$$

KYZ024-025-028>034-038-045-046-053-070300-
NORTH CENTRAL KENTUCKY

CITY           SKY/WX    TMP DP  RH WIND       PRES   REMARKS
LOUISVILLE/SDF CLEAR     42  24  49 CALM      30.26S
LOUISVILLE/LOU CLEAR     40  26  57 CALM      30.26F
FORT KNOX      CLEAR     36  22  56 SW1       30.25R
$$

KYZ035>037-039>044-047>052-055>060-089>105-070300-
NORTHEAST KENTUCKY

CITY           SKY/WX    TMP DP  RH WIND       PRES   REMARKS
LEXINGTON      CLEAR     37  23  56 S5        30.26F WCI  33
COVINGTON      CLEAR     33  26  75 S3        30.24S
FRANKFORT      CLEAR     32  23  69 CALM      30.25F
$$

KYZ054-064>069-076>088-106>120-070300-
SOUTHEAST KENTUCKY

CITY           SKY/WX    TMP DP  RH WIND       PRES   REMARKS
JACKSON        CLEAR     40  20  44 CALM      30.25S
LONDON         CLOUDY    36  23  59 CALM      30.26F
SOMERSET       CLEAR     34  23  64 CALM      30.29S
MIDDLESBORO    PTCLDY    36  26  66 CALM      30.28S
MONTICELLO     MOCLDY    30  25  81 N8        30.29F WCI  22
$$





USA.gov is the U.S. government's official web portal to all federal, state and local government web resources and services.